Location: Clay (historical)
(35.1476°N, 89.8179°W)
Time: 02:34:17
(UTC+00:00)

Cosmos 2333 - Pass Details

Date: 18 February 2026
Orbit: 831 x 862 km, 70.9° (Epoch: 6 March)

Event Time Altitude Azimuth Distance (km) Brightness Sun altitude
Rises 12:12:25 0° 209° (SSW) 3,409 7.1 -6.8°
Reaches altitude 10° 12:14:54 10° 213° (SSW) 2,472 6.4 -6.3°
Maximum altitude 12:20:31 61° 293° (WNW) 959 4.3 -5.1°
Drops below altitude 10° 12:26:07 10° 14° (NNE) 2,465 6.7 -4.0°
Sets 12:28:36 0° 18° (NNE) 3,398 7.4 -3.5°
